NATIONAL KEY DEER NWR FL US current weather conditions

sailwx.info

Wind from 071 at 4 knots gusting 6

Air temperature 20.6° C
Dewpoint 19.2° C

Last reported at 2017-Dec-17 12:38 UTC.
Time now 2017-Dec-17 14:06 UTC

Location: N 24°43' W 081°23'.
View on Google Maps.

See reports from other nearby stations

  
Tides and Currents Weather Stations Pressure Air Temp Water Temp Dewpoint Dewpoint Depression Visibility Wind Speed Wind Dir Waves Ship Positions
date/time (UTC)wind fromknots sea level pressurealtimeterstation pressurevisibilityair tempwater tempwave heightnotes
2017-Dec-17 12:38 071 4 gusting 6 20.6
2017-Dec-17 11:38 060 4 gusting 6 20.0
2017-Dec-17 10:38 062 4 gusting 8 20.0
2017-Dec-17 09:38 060 4 gusting 7 20.6
2017-Dec-17 08:38 060 4 gusting 7 20.6
2017-Dec-17 07:38 053 4 gusting 7 20.6
2017-Dec-17 06:38 060 5 gusting 8 20.6
2017-Dec-17 05:38 063 5 gusting 8 20.6
2017-Dec-17 04:38 060 5 gusting 8 20.6
2017-Dec-17 03:38 059 5 gusting 11 21.1
2017-Dec-17 02:38 066 6 gusting 11 21.7
2017-Dec-17 01:38 068 6 gusting 12 21.7
2017-Dec-17 00:38 072 6 gusting 12 22.2
2017-Dec-16 23:38 076 6 gusting 12 22.2
2017-Dec-16 22:38 077 6 gusting 11 22.2
2017-Dec-16 21:38 072 6 gusting 11 23.9
2017-Dec-16 20:38 072 6 gusting 12 24.4
2017-Dec-16 19:38 060 6 gusting 10 25.6
2017-Dec-16 18:38 061 5 gusting 9 24.4
2017-Dec-16 17:38 057 6 gusting 10 24.4
2017-Dec-16 16:38 059 6 gusting 11 23.3
2017-Dec-16 15:38 054 6 gusting 12 22.8
2017-Dec-16 14:38 056 6 gusting 10 22.2
2017-Dec-16 13:38 039 5 gusting 8 21.1
2017-Dec-16 12:38 049 3 gusting 6 18.9
2017-Dec-16 11:38 063 2 gusting 5 18.3
2017-Dec-16 10:38 088 2 gusting 4 17.8
2017-Dec-16 09:38 062 3 gusting 6 19.4
2017-Dec-16 08:38 020 4 gusting 6 19.4
2017-Dec-16 07:38 026 3 gusting 6 18.9
2017-Dec-16 06:38 026 2 gusting 3 17.8
2017-Dec-16 05:38 044 1 gusting 3 16.7
2017-Dec-16 04:38 025 1 gusting 3 17.8
2017-Dec-16 03:38 045 1 gusting 2 18.3
2017-Dec-16 02:38 092 1 gusting 2 17.8
2017-Dec-16 01:38 095 1 gusting 2 18.3
2017-Dec-16 00:38 039 1 gusting 2 18.3
2017-Dec-15 23:38 044 2 gusting 3 18.9
2017-Dec-15 22:38 019 1 gusting 5 19.4
2017-Dec-15 21:38 027 3 gusting 5 22.2
2017-Dec-15 20:38 069 3 gusting 5 23.3
2017-Dec-15 19:38 068 3 gusting 6 23.3
2017-Dec-15 18:38 048 4 gusting 6 23.9
2017-Dec-15 17:38 069 4 gusting 6 23.9
2017-Dec-15 16:38 025 3 gusting 6 23.9
2017-Dec-15 15:38 026 3 gusting 4 23.3
2017-Dec-15 14:38 075 2 gusting 4 21.7